QPF
0.00 0.00 0.01 0.02 0.01 0.01 0.02 0.02 0.02 0.02 0.02 0.01 0.01 0.01 0.01 0.01 0.01 0.01 0.00 0.00 0.01 0.01 0.01 0.01 0.01 0.01 0.01 0.01 0.01 0.00 0.00 0.00 0.00 0.00 0.01 0.01 0.01 0.01 0.01 0.01 0.01 0.01 0.02
0.00 0.00 0.01 0.01 0.01 0.01 0.02 0.02 0.01 0.01 0.01 0.01 0.02 0.01 0.01 0.01 0.01 0.01 0.00 0.00 0.01 0.01 0.01 0.01 0.01 0.01 0.01 0.01 0.00 0.00 0.00 0.00 0.00 0.00 0.00 0.01 0.02 0.02 0.02 0.02 0.02 0.03 0.03
0.00 0.00 0.01 0.01 0.01 0.01 0.02 0.02 0.01 0.01 0.01 0.01 0.01 0.01 0.01 0.01 0.01 0.01 0.01 0.01 0.01 0.01 0.01 0.01 0.01 0.01 0.01 0.01 0.00 0.00 0.00 0.00 0.00 0.00 0.00 0.01 0.02 0.02 0.02 0.02 0.02 0.02 0.02
0.00 0.00 0.01 0.01 0.01 0.01 0.02 0.02 0.01 0.01 0.01 0.01 0.01 0.01 0.01 0.01 0.01 0.01 0.01 0.01 0.01 0.01 0.01 0.01 0.01 0.01 0.01 0.01 0.00 0.00 0.00 0.00 0.00 0.00 0.00 0.00 0.01 0.02 0.02 0.03 0.02 0.02 0.02
0.00 0.00 0.01 0.01 0.01 0.02 0.02 0.02 0.02 0.02 0.02 0.01 0.01 0.01 0.01 0.01 0.01 0.01 0.01 0.01 0.01 0.01 0.01 0.00 0.01 0.01 0.00 0.00 0.00 0.00 0.00 0.00 0.00 0.00 0.00 0.00 0.01 0.03 0.03 0.03 0.02 0.01 0.01
0.00 0.00 0.01 0.02 0.02 0.02 0.02 0.02 0.02 0.02 0.02 0.02 0.01 0.01 0.01 0.01 0.01 0.01 0.01 0.01 0.01 0.01 0.00 0.00 0.00 0.00 0.00 0.00 0.00 0.00 0.00 0.00 0.00 0.00 0.00 0.01 0.02 0.03 0.03 0.02 0.01 0.01 0.01
0.00 0.00 0.01 0.02 0.02 0.03 0.02 0.02 0.02 0.02 0.02 0.02 0.01 0.01 0.01 0.01 0.01 0.01 0.01 0.01 0.01 0.01 0.00 0.00 0.00 0.00 0.00 0.00 0.00 0.00 0.00 0.00 0.00 0.00 0.00 0.01 0.02 0.03 0.02 0.01 0.01 0.01 0.01
0.00 0.00 0.02 0.03 0.04 0.04 0.05 0.04 0.03 0.02 0.02 0.01 0.01 0.02 0.01 0.01 0.01 0.01 0.01 0.01 0.01 0.01 0.00 0.00 0.00 0.00 0.00 0.00 0.00 0.00 0.00 0.00 0.00 0.00 0.00 0.01 0.02 0.01 0.01 0.01 0.01 0.01 0.01
0.01 0.01 0.02 0.04 0.06 0.06 0.06 0.05 0.04 0.03 0.02 0.02 0.02 0.02 0.01 0.01 0.01 0.01 0.01 0.01 0.01 0.00 0.00 0.00 0.00 0.00 0.00 0.00 0.00 0.00 0.00 0.00 0.00 0.00 0.00 0.01 0.01 0.01 0.01 0.01 0.01 0.01 0.01
0.01 0.02 0.03 0.05 0.07 0.08 0.08 0.06 0.04 0.03 0.02 0.02 0.02 0.01 0.01 0.01 0.02 0.01 0.01 0.01 0.00 0.00 0.00 0.00 0.00 0.01 0.00 0.00 0.00 0.00 0.00 0.00 0.00 0.00 0.00 0.00 0.01 0.01 0.01 0.01 0.01 0.01 0.01
0.03 0.03 0.04 0.07 0.09 0.09 0.09 0.07 0.06 0.04 0.03 0.03 0.02 0.01 0.01 0.01 0.01 0.01 0.00 0.01 0.00 0.00 0.00 0.00 0.01 0.01 0.00 0.00 0.00 0.00 0.00 0.00 0.00 0.00 0.00 0.00 0.01 0.01 0.01 0.01 0.01 0.00 0.00
0.02 0.04 0.05 0.07 0.08 0.10 0.09 0.09 0.08 0.06 0.05 0.03 0.02 0.02 0.01 0.01 0.01 0.00 0.00 0.01 0.01 0.00 0.00 0.01 0.01 0.00 0.00 0.00 0.00 0.00 0.00 0.00 0.00 0.00 0.00 0.00 0.01 0.01 0.01 0.00 0.00 0.00 0.00
0.02 0.04 0.06 0.07 0.08 0.10 0.10 0.09 0.08 0.06 0.05 0.04 0.02 0.01 0.01 0.01 0.00 0.00 0.01 0.01 0.00 0.00 0.00 0.01 0.00 0.00 0.00 0.00 0.00 0.00 0.00 0.00 0.00 0.00 0.00 0.01 0.01 0.01 0.01 0.00 0.00 0.00 0.00
0.04 0.04 0.05 0.08 0.09 0.10 0.11 0.11 0.08 0.05 0.04 0.03 0.02 0.01 0.01 0.00 0.00 0.00 0.00 0.00 0.00 0.00 0.00 0.00 0.00 0.00 0.00 0.00 0.00 0.00 0.00 0.00 0.00 0.00 0.00 0.00 0.01 0.01 0.00 0.00 0.00 0.00 0.00
0.05 0.05 0.06 0.08 0.09 0.10 0.12 0.11 0.10 0.07 0.04 0.03 0.02 0.01 0.00 0.00 0.00 0.00 0.00 0.00 0.00 0.00 0.00 0.00 0.00 0.00 0.00 0.00 0.00 0.00 0.00 0.00 0.00 0.00 0.00 0.00 0.00 0.00 0.00 0.00 0.00 0.00 0.00
0.06 0.05 0.06 0.08 0.09 0.11 0.11 0.09 0.07 0.07 0.05 0.03 0.02 0.01 0.00 0.00 0.00 0.00 0.00 0.00 0.00 0.00 0.00 0.00 0.00 0.00 0.00 0.00 0.00 0.00 0.00 0.00 0.00 0.00 0.00 0.00 0.00 0.00 0.00 0.00 0.00 0.00 0.00
0.06 0.06 0.07 0.09 0.10 0.11 0.11 0.10 0.08 0.06 0.06 0.05 0.03 0.02 0.01 0.00 0.00 0.01 0.00 0.00 0.00 0.00 0.00 0.00 0.00 0.00 0.00 0.00 0.00 0.00 0.00 0.00 0.00 0.00 0.00 0.00 0.00 0.00 0.00 0.00 0.00 0.00 0.00
0.07 0.08 0.09 0.11 0.12 0.12 0.12 0.11 0.09 0.08 0.07 0.06 0.05 0.03 0.01 0.00 0.00 0.01 0.00 0.00 0.00 0.00 0.00 0.00 0.00 0.00 0.00 0.00 0.00 0.00 0.00 0.00 0.00 0.00 0.00 0.00 0.00 0.00 0.00 0.00 0.00 0.00 0.00
0.06 0.09 0.10 0.11 0.12 0.12 0.12 0.11 0.10 0.10 0.10 0.08 0.06 0.05 0.02 0.01 0.00 0.01 0.01 0.00 0.00 0.00 0.00 0.00 0.00 0.00 0.00 0.00 0.00 0.00 0.00 0.00 0.00 0.00 0.00 0.00 0.00 0.00 0.00 0.00 0.00 0.00 0.00
0.06 0.08 0.09 0.11 0.12 0.12 0.14 0.14 0.12 0.12 0.11 0.11 0.08 0.06 0.04 0.02 0.01 0.01 0.01 0.00 0.00 0.00 0.00 0.00 0.00 0.00 0.00 0.00 0.00 0.00 0.00 0.00 0.00 0.00 0.00 0.00 0.00 0.00 0.00 0.00 0.00 0.00 0.00
0.06 0.07 0.09 0.11 0.12 0.13 0.14 0.14 0.12 0.11 0.10 0.09 0.09 0.08 0.06 0.03 0.01 0.01 0.01 0.01 0.00 0.00 0.00 0.00 0.00 0.00 0.00 0.00 0.00 0.00 0.00 0.00 0.00 0.00 0.00 0.00 0.00 0.00 0.00 0.00 0.00 0.00 0.00
0.07 0.07 0.08 0.10 0.11 0.12 0.12 0.10 0.10 0.10 0.10 0.07 0.07 0.06 0.06 0.05 0.03 0.01 0.00 0.00 0.00 0.00 0.00 0.00 0.00 0.00 0.00 0.00 0.00 0.00 0.00 0.00 0.00 0.00 0.00 0.00 0.00 0.00 0.00 0.00 0.00 0.00 0.00
0.07 0.07 0.08 0.10 0.12 0.12 0.12 0.12 0.12 0.12 0.13 0.11 0.07 0.05 0.04 0.04 0.04 0.02 0.01 0.00 0.00 0.00 0.00 0.00 0.00 0.00 0.00 0.00 0.00 0.00 0.00 0.00 0.00 0.00 0.00 0.00 0.00 0.00 0.00 0.00 0.00 0.00 0.00
0.06 0.07 0.07 0.10 0.13 0.13 0.12 0.13 0.12 0.12 0.12 0.10 0.07 0.05 0.04 0.03 0.03 0.03 0.02 0.01 0.00 0.00 0.00 0.00 0.00 0.00 0.00 0.00 0.00 0.00 0.00 0.00 0.00 0.00 0.00 0.00 0.00 0.00 0.00 0.00 0.00 0.00 0.00
0.05 0.07 0.08 0.09 0.12 0.14 0.15 0.12 0.10 0.11 0.12 0.10 0.09 0.08 0.06 0.04 0.03 0.02 0.02 0.02 0.01 0.00 0.00 0.00 0.00 0.00 0.00 0.00 0.00 0.00 0.00 0.00 0.00 0.00 0.00 0.00 0.00 0.00 0.00 0.00 0.00 0.00 0.00
0.05 0.08 0.09 0.10 0.10 0.13 0.17 0.15 0.10 0.09 0.11 0.13 0.11 0.09 0.08 0.05 0.04 0.03 0.02 0.02 0.02 0.01 0.00 0.00 0.00 0.00 0.00 0.00 0.00 0.00 0.00 0.00 0.00 0.00 0.00 0.00 0.00 0.00 0.00 0.00 0.00 0.00 0.00
MSLP
1007.12 1006.95 1007.03 1007.31 1007.73 1008.21 1008.67 1009.08 1009.42 1009.71 1009.99 1010.29 1010.65 1011.06 1011.50 1011.95 1012.38 1012.73 1013.01 1013.22 1013.38 1013.51 1013.66 1013.82 1014.02 1014.22 1014.42 1014.58 1014.69 1014.74 1014.74 1014.72 1014.69 1014.67 1014.68 1014.72 1014.78 1014.84 1014.89 1014.92 1014.91 1014.88 1014.84
1007.08 1006.92 1007.01 1007.30 1007.72 1008.20 1008.67 1009.10 1009.46 1009.78 1010.08 1010.42 1010.80 1011.23 1011.70 1012.17 1012.60 1012.96 1013.23 1013.44 1013.59 1013.72 1013.86 1014.04 1014.24 1014.47 1014.68 1014.86 1014.98 1015.05 1015.05 1015.02 1014.98 1014.95 1014.95 1014.97 1015.02 1015.07 1015.10 1015.12 1015.12 1015.10 1015.06
1006.95 1006.82 1006.92 1007.23 1007.67 1008.17 1008.66 1009.12 1009.52 1009.87 1010.22 1010.58 1010.98 1011.43 1011.90 1012.36 1012.78 1013.13 1013.40 1013.59 1013.75 1013.89 1014.05 1014.25 1014.49 1014.74 1014.98 1015.18 1015.31 1015.38 1015.38 1015.34 1015.28 1015.23 1015.20 1015.20 1015.23 1015.26 1015.28 1015.30 1015.29 1015.28 1015.27
1006.76 1006.67 1006.80 1007.13 1007.60 1008.13 1008.66 1009.15 1009.60 1009.99 1010.37 1010.76 1011.18 1011.62 1012.08 1012.53 1012.92 1013.26 1013.52 1013.72 1013.89 1014.07 1014.26 1014.50 1014.78 1015.06 1015.33 1015.54 1015.68 1015.74 1015.74 1015.68 1015.60 1015.53 1015.48 1015.45 1015.45 1015.46 1015.47 1015.48 1015.49 1015.49 1015.50
1006.57 1006.51 1006.67 1007.03 1007.52 1008.08 1008.65 1009.19 1009.67 1010.11 1010.52 1010.93 1011.36 1011.79 1012.23 1012.66 1013.04 1013.36 1013.63 1013.85 1014.06 1014.27 1014.52 1014.81 1015.12 1015.43 1015.72 1015.94 1016.08 1016.14 1016.12 1016.04 1015.94 1015.85 1015.78 1015.74 1015.72 1015.72 1015.73 1015.74 1015.75 1015.77 1015.80
1006.41 1006.38 1006.57 1006.95 1007.46 1008.04 1008.63 1009.20 1009.72 1010.20 1010.64 1011.07 1011.50 1011.93 1012.36 1012.76 1013.14 1013.46 1013.74 1014.00 1014.26 1014.52 1014.82 1015.15 1015.50 1015.84 1016.13 1016.35 1016.48 1016.53 1016.49 1016.41 1016.30 1016.20 1016.12 1016.07 1016.05 1016.05 1016.07 1016.09 1016.11 1016.15 1016.20
1006.33 1006.32 1006.52 1006.89 1007.40 1007.99 1008.59 1009.18 1009.73 1010.23 1010.70 1011.15 1011.59 1012.02 1012.45 1012.86 1013.23 1013.57 1013.89 1014.18 1014.49 1014.81 1015.15 1015.52 1015.89 1016.24 1016.52 1016.73 1016.85 1016.88 1016.83 1016.75 1016.64 1016.55 1016.49 1016.45 1016.45 1016.46 1016.49 1016.53 1016.57 1016.62 1016.68
1006.36 1006.34 1006.51 1006.87 1007.35 1007.92 1008.51 1009.11 1009.67 1010.19 1010.69 1011.16 1011.62 1012.08 1012.52 1012.94 1013.33 1013.71 1014.06 1014.40 1014.74 1015.11 1015.49 1015.87 1016.25 1016.58 1016.85 1017.04 1017.14 1017.16 1017.12 1017.04 1016.96 1016.89 1016.86 1016.86 1016.88 1016.93 1016.98 1017.03 1017.09 1017.15 1017.21
1006.49 1006.43 1006.56 1006.86 1007.30 1007.82 1008.38 1008.96 1009.53 1010.07 1010.60 1011.11 1011.61 1012.09 1012.57 1013.02 1013.45 1013.86 1014.25 1014.63 1015.01 1015.39 1015.78 1016.17 1016.53 1016.84 1017.09 1017.26 1017.34 1017.36 1017.32 1017.27 1017.22 1017.20 1017.21 1017.25 1017.31 1017.39 1017.47 1017.54 1017.61 1017.67 1017.72
1006.69 1006.58 1006.64 1006.87 1007.23 1007.68 1008.20 1008.75 1009.31 1009.87 1010.43 1010.99 1011.54 1012.08 1012.61 1013.11 1013.58 1014.03 1014.45 1014.86 1015.25 1015.64 1016.02 1016.39 1016.72 1017.00 1017.22 1017.37 1017.45 1017.47 1017.46 1017.44 1017.44 1017.46 1017.52 1017.60 1017.71 1017.81 1017.91 1018.00 1018.06 1018.12 1018.16
1006.94 1006.76 1006.74 1006.88 1007.15 1007.52 1007.98 1008.49 1009.04 1009.62 1010.21 1010.82 1011.43 1012.04 1012.63 1013.19 1013.72 1014.20 1014.65 1015.07 1015.46 1015.84 1016.19 1016.53 1016.83 1017.08 1017.27 1017.41 1017.49 1017.53 1017.54 1017.57 1017.60 1017.67 1017.78 1017.90 1018.03 1018.16 1018.27 1018.36 1018.42 1018.47 1018.50
1007.20 1006.95 1006.85 1006.89 1007.07 1007.36 1007.75 1008.22 1008.75 1009.34 1009.97 1010.62 1011.30 1011.98 1012.64 1013.26 1013.84 1014.36 1014.83 1015.25 1015.63 1015.98 1016.31 1016.60 1016.86 1017.09 1017.26 1017.40 1017.49 1017.55 1017.61 1017.67 1017.75 1017.86 1017.99 1018.14 1018.29 1018.43 1018.54 1018.63 1018.69 1018.72 1018.73
1007.44 1007.14 1006.96 1006.93 1007.02 1007.23 1007.55 1007.97 1008.48 1009.06 1009.71 1010.42 1011.15 1011.89 1012.61 1013.29 1013.92 1014.48 1014.96 1015.39 1015.75 1016.08 1016.37 1016.63 1016.86 1017.07 1017.24 1017.38 1017.49 1017.59 1017.68 1017.78 1017.90 1018.03 1018.18 1018.34 1018.50 1018.63 1018.74 1018.82 1018.87 1018.89 1018.89
1007.65 1007.31 1007.08 1006.98 1007.01 1007.15 1007.41 1007.78 1008.25 1008.82 1009.48 1010.21 1010.98 1011.77 1012.54 1013.28 1013.95 1014.54 1015.04 1015.47 1015.83 1016.13 1016.40 1016.63 1016.85 1017.04 1017.22 1017.38 1017.52 1017.65 1017.78 1017.91 1018.05 1018.21 1018.37 1018.52 1018.67 1018.80 1018.90 1018.97 1019.01 1019.03 1019.03
1007.81 1007.46 1007.21 1007.07 1007.05 1007.14 1007.34 1007.66 1008.09 1008.63 1009.28 1010.01 1010.79 1011.61 1012.42 1013.19 1013.90 1014.53 1015.05 1015.49 1015.85 1016.15 1016.40 1016.63 1016.83 1017.03 1017.22 1017.40 1017.58 1017.74 1017.91 1018.07 1018.23 1018.39 1018.55 1018.70 1018.84 1018.96 1019.05 1019.12 1019.15 1019.17 1019.17
1007.91 1007.57 1007.32 1007.18 1007.13 1007.18 1007.34 1007.62 1008.00 1008.50 1009.11 1009.81 1010.59 1011.41 1012.24 1013.03 1013.77 1014.43 1014.99 1015.45 1015.82 1016.12 1016.38 1016.61 1016.82 1017.03 1017.24 1017.44 1017.65 1017.85 1018.04 1018.22 1018.40 1018.57 1018.73 1018.87 1019.01 1019.12 1019.21 1019.27 1019.31 1019.32 1019.33
1007.95 1007.64 1007.41 1007.27 1007.21 1007.25 1007.38 1007.61 1007.95 1008.39 1008.95 1009.61 1010.36 1011.16 1011.99 1012.80 1013.56 1014.25 1014.84 1015.33 1015.73 1016.06 1016.33 1016.57 1016.80 1017.02 1017.25 1017.48 1017.71 1017.93 1018.15 1018.35 1018.54 1018.71 1018.87 1019.02 1019.15 1019.26 1019.34 1019.41 1019.45 1019.47 1019.48
1007.92 1007.64 1007.43 1007.30 1007.26 1007.29 1007.40 1007.59 1007.89 1008.28 1008.78 1009.39 1010.10 1010.87 1011.68 1012.49 1013.27 1013.99 1014.61 1015.14 1015.58 1015.94 1016.24 1016.50 1016.75 1016.99 1017.23 1017.48 1017.73 1017.97 1018.21 1018.42 1018.62 1018.80 1018.96 1019.11 1019.24 1019.35 1019.44 1019.50 1019.55 1019.57 1019.58
1007.83 1007.56 1007.36 1007.25 1007.20 1007.23 1007.33 1007.50 1007.76 1008.11 1008.56 1009.12 1009.78 1010.52 1011.31 1012.12 1012.91 1013.65 1014.32 1014.89 1015.37 1015.77 1016.10 1016.39 1016.66 1016.91 1017.17 1017.43 1017.70 1017.95 1018.19 1018.42 1018.62 1018.81 1018.97 1019.11 1019.24 1019.35 1019.44 1019.50 1019.55 1019.57 1019.57
1007.68 1007.40 1007.19 1007.07 1007.02 1007.03 1007.12 1007.28 1007.52 1007.84 1008.26 1008.79 1009.41 1010.12 1010.89 1011.69 1012.49 1013.26 1013.95 1014.57 1015.09 1015.53 1015.90 1016.22 1016.51 1016.78 1017.05 1017.33 1017.60 1017.86 1018.11 1018.34 1018.54 1018.72 1018.88 1019.02 1019.13 1019.23 1019.31 1019.37 1019.41 1019.42 1019.42
1007.49 1007.16 1006.92 1006.75 1006.67 1006.67 1006.75 1006.90 1007.13 1007.45 1007.86 1008.36 1008.97 1009.66 1010.42 1011.22 1012.03 1012.81 1013.53 1014.18 1014.74 1015.22 1015.62 1015.97 1016.29 1016.58 1016.87 1017.16 1017.44 1017.71 1017.96 1018.18 1018.38 1018.55 1018.69 1018.81 1018.91 1018.99 1019.05 1019.10 1019.12 1019.13 1019.12
1007.28 1006.88 1006.55 1006.32 1006.18 1006.15 1006.21 1006.36 1006.59 1006.92 1007.34 1007.85 1008.46 1009.14 1009.90 1010.70 1011.52 1012.31 1013.05 1013.72 1014.31 1014.82 1015.26 1015.65 1016.00 1016.32 1016.63 1016.94 1017.23 1017.51 1017.76 1017.98 1018.17 1018.31 1018.43 1018.51 1018.58 1018.63 1018.67 1018.70 1018.71 1018.71 1018.70
1007.07 1006.57 1006.14 1005.81 1005.60 1005.51 1005.54 1005.68 1005.92 1006.27 1006.71 1007.25 1007.87 1008.57 1009.34 1010.14 1010.96 1011.76 1012.51 1013.20 1013.81 1014.35 1014.82 1015.24 1015.62 1015.98 1016.33 1016.67 1016.98 1017.28 1017.54 1017.75 1017.92 1018.03 1018.11 1018.16 1018.18 1018.20 1018.21 1018.22 1018.22 1018.23 1018.22
1006.89 1006.29 1005.73 1005.29 1004.97 1004.81 1004.79 1004.91 1005.17 1005.53 1006.01 1006.57 1007.22 1007.95 1008.72 1009.53 1010.35 1011.15 1011.90 1012.60 1013.22 1013.78 1014.28 1014.74 1015.17 1015.57 1015.96 1016.34 1016.69 1017.01 1017.28 1017.50 1017.65 1017.74 1017.78 1017.78 1017.76 1017.74 1017.72 1017.71 1017.72 1017.73 1017.76
1006.75 1006.04 1005.36 1004.80 1004.38 1004.12 1004.05 1004.14 1004.38 1004.76 1005.25 1005.84 1006.52 1007.26 1008.05 1008.86 1009.68 1010.47 1011.23 1011.92 1012.56 1013.13 1013.66 1014.15 1014.62 1015.08 1015.52 1015.95 1016.35 1016.70 1016.99 1017.22 1017.36 1017.43 1017.44 1017.40 1017.35 1017.29 1017.25 1017.23 1017.25 1017.29 1017.35
1006.64 1005.84 1005.06 1004.38 1003.86 1003.51 1003.36 1003.40 1003.61 1003.98 1004.47 1005.08 1005.77 1006.52 1007.31 1008.13 1008.95 1009.74 1010.48 1011.18 1011.82 1012.41 1012.96 1013.48 1014.00 1014.50 1015.00 1015.48 1015.93 1016.33 1016.65 1016.89 1017.05 1017.11 1017.10 1017.04 1016.95 1016.88 1016.82 1016.81 1016.84 1016.92 1017.02
Thickness
5785 5785 5780 5779 5777 5775 5773 5772 5770 5768 5766 5764 5763 5761 5760 5758 5757 5755 5754 5753 5751 5750 5748 5746 5744 5743 5741 5739 5737 5736 5734 5733 5732 5730 5729 5728 5726 5724 5723 5721 5721 5719 5716
5785 5783 5776 5775 5773 5771 5769 5768 5766 5764 5762 5761 5760 5758 5756 5755 5753 5752 5750 5749 5747 5746 5744 5742 5740 5739 5737 5735 5733 5731 5730 5728 5727 5726 5725 5723 5722 5720 5718 5717 5715 5713 5711
5779 5778 5772 5770 5768 5766 5765 5763 5762 5760 5759 5757 5756 5754 5753 5751 5749 5748 5746 5745 5743 5742 5740 5738 5736 5734 5732 5730 5728 5727 5725 5723 5722 5721 5721 5721 5718 5715 5714 5712 5710 5708 5706
5772 5771 5769 5765 5763 5762 5760 5759 5757 5756 5754 5753 5752 5750 5748 5747 5745 5744 5742 5741 5739 5737 5735 5733 5731 5729 5728 5726 5723 5722 5720 5718 5717 5718 5718 5716 5714 5710 5709 5707 5705 5702 5700
5765 5765 5763 5759 5758 5756 5755 5754 5752 5751 5750 5748 5747 5746 5744 5742 5741 5739 5738 5736 5734 5732 5730 5728 5726 5725 5723 5721 5719 5717 5715 5713 5713 5714 5713 5711 5708 5705 5703 5701 5699 5697 5694
5758 5758 5756 5753 5752 5751 5750 5749 5747 5746 5745 5743 5742 5741 5739 5738 5736 5734 5733 5731 5729 5727 5725 5724 5722 5720 5718 5716 5714 5712 5710 5709 5711 5710 5708 5706 5703 5700 5698 5696 5693 5691 5688
5750 5751 5749 5746 5745 5745 5744 5743 5742 5741 5739 5738 5737 5735 5734 5733 5731 5729 5727 5725 5724 5722 5720 5718 5717 5715 5713 5711 5709 5707 5705 5705 5707 5705 5703 5700 5697 5695 5693 5690 5688 5685 5683
5741 5742 5742 5739 5739 5738 5737 5737 5736 5735 5734 5732 5731 5730 5729 5727 5725 5723 5722 5720 5718 5717 5715 5713 5711 5709 5708 5706 5704 5701 5700 5701 5701 5700 5697 5695 5691 5689 5687 5684 5682 5679 5676
5731 5733 5735 5733 5732 5731 5731 5730 5729 5728 5728 5727 5725 5724 5723 5721 5719 5718 5716 5715 5713 5712 5710 5708 5706 5704 5702 5700 5698 5696 5695 5696 5697 5694 5692 5689 5685 5684 5681 5678 5676 5673 5670
5721 5724 5727 5728 5728 5726 5725 5724 5723 5722 5721 5720 5719 5718 5716 5714 5713 5711 5710 5709 5708 5706 5704 5703 5701 5699 5697 5695 5693 5691 5690 5691 5692 5689 5687 5683 5680 5678 5675 5672 5670 5667 5664
5709 5714 5719 5721 5722 5721 5720 5718 5716 5715 5714 5713 5712 5711 5709 5708 5707 5705 5705 5703 5702 5700 5699 5697 5695 5694 5691 5689 5687 5686 5686 5688 5686 5685 5681 5677 5675 5673 5670 5667 5663 5661 5658
5699 5705 5710 5713 5715 5715 5714 5712 5711 5710 5708 5708 5707 5705 5705 5704 5702 5700 5697 5697 5696 5695 5693 5691 5690 5688 5687 5686 5682 5682 5684 5683 5681 5679 5675 5672 5670 5668 5665 5661 5658 5655 5652
5692 5696 5701 5704 5706 5707 5707 5707 5706 5705 5704 5703 5702 5700 5700 5697 5695 5694 5692 5690 5689 5689 5688 5686 5685 5685 5685 5683 5681 5680 5679 5678 5676 5673 5670 5666 5664 5662 5659 5656 5652 5649 5646
5682 5687 5692 5695 5697 5699 5701 5701 5700 5700 5699 5698 5696 5695 5694 5692 5691 5690 5689 5687 5686 5685 5684 5683 5682 5681 5680 5678 5677 5676 5674 5673 5671 5668 5664 5661 5659 5656 5654 5651 5647 5644 5641
5671 5678 5683 5686 5689 5691 5693 5694 5694 5694 5693 5692 5690 5689 5689 5687 5686 5685 5684 5683 5682 5681 5680 5678 5678 5677 5676 5674 5673 5671 5670 5668 5665 5663 5659 5655 5653 5650 5648 5645 5642 5639 5635
5661 5668 5674 5678 5682 5683 5685 5687 5688 5688 5688 5687 5685 5685 5683 5683 5681 5680 5680 5678 5678 5676 5675 5674 5674 5672 5671 5670 5668 5667 5665 5663 5661 5658 5655 5650 5647 5644 5642 5640 5636 5633 5630
5652 5658 5665 5670 5674 5676 5678 5680 5681 5682 5681 5681 5680 5679 5678 5678 5676 5675 5675 5674 5673 5671 5670 5669 5669 5668 5666 5665 5663 5662 5660 5658 5655 5653 5650 5647 5643 5639 5636 5634 5631 5627 5624
5642 5649 5655 5662 5667 5670 5672 5673 5675 5675 5676 5676 5675 5674 5673 5673 5671 5670 5670 5670 5668 5667 5665 5665 5664 5663 5661 5660 5659 5657 5654 5652 5650 5648 5645 5642 5639 5635 5632 5628 5625 5621 5618
5635 5641 5647 5654 5659 5663 5666 5667 5669 5670 5670 5670 5670 5670 5668 5667 5667 5666 5666 5665 5663 5662 5661 5660 5660 5659 5658 5655 5654 5651 5650 5648 5645 5642 5640 5637 5634 5630 5627 5623 5619 5615 5612
5627 5633 5639 5646 5652 5656 5659 5660 5661 5662 5664 5665 5665 5665 5664 5663 5662 5662 5661 5660 5659 5658 5657 5656 5655 5654 5653 5650 5648 5645 5644 5643 5640 5638 5636 5632 5629 5625 5622 5619 5615 5611 5606
5618 5625 5632 5638 5644 5649 5652 5654 5655 5657 5659 5659 5660 5661 5660 5659 5658 5658 5657 5656 5655 5655 5654 5653 5651 5649 5647 5645 5643 5641 5639 5637 5636 5634 5631 5628 5625 5621 5617 5614 5611 5607 5602
5610 5618 5625 5631 5639 5644 5648 5651 5652 5653 5653 5654 5655 5655 5655 5655 5655 5654 5654 5653 5652 5651 5650 5649 5647 5646 5643 5640 5641 5639 5637 5634 5632 5629 5627 5624 5621 5617 5613 5609 5606 5601 5597
5603 5611 5619 5626 5633 5639 5643 5644 5645 5645 5645 5647 5649 5651 5652 5652 5652 5651 5651 5650 5649 5648 5647 5646 5644 5642 5640 5637 5638 5637 5635 5636 5632 5627 5624 5620 5617 5614 5610 5605 5601 5596 5592
5596 5604 5612 5619 5628 5634 5637 5639 5642 5644 5645 5648 5649 5649 5648 5648 5649 5648 5648 5648 5647 5646 5645 5643 5641 5640 5637 5634 5632 5631 5632 5632 5628 5626 5621 5617 5613 5610 5607 5601 5596 5592 5587
5590 5596 5604 5612 5620 5628 5633 5636 5639 5641 5643 5644 5644 5645 5645 5645 5645 5645 5645 5644 5644 5644 5642 5641 5638 5637 5635 5633 5631 5627 5625 5622 5622 5622 5620 5616 5610 5606 5602 5597 5592 5588 5582
5581 5589 5596 5603 5612 5621 5627 5633 5635 5638 5639 5640 5641 5642 5642 5642 5642 5643 5642 5642 5642 5642 5640 5638 5636 5634 5632 5630 5628 5625 5623 5620 5618 5617 5616 5614 5610 5604 5597 5592 5588 5583 5577